Weather History for Russell, KS

Change the Weather History Date:

Tuesday, March 18, 2014

  Actual Average Record
Temperature  
Mean Temperature 42 °F -  
Max Temperature 54 °F 54 °F 78 °F (1976)
Min Temperature 33 °F 31 °F -4 °F (1958)
Degree Days  
Heating Degree Days 22    
Moisture  
Dew Point 30 °F    
Average Humidity 72    
Maximum Humidity 96    
Minimum Humidity 46    
Precipitation  
Precipitation 0.00 in - - ()
Sea Level Pressure  
Sea Level Pressure 29.60 in    
Wind  
Wind Speed 21 mph (NW)    
Max Wind Speed 30 mph    
Max Gust Speed 41 mph    
Visibility 8 miles    
Events Snow    
Averages and records for this station are not official NWS values.
T = Trace of Precipitation, MM = Missing Value Source: NWS Daily Summary

Daily Weather History Graph

Daily Weather History Graph

Search for Another Location

Airport:

Trip Planner

Search our weather history database for the weather conditions in past years. The results will help you decide how hot, cold, wet, or windy it might be!

Date:

Astronomy

Mar. 18, 2014 Rise Set
Actual Time 7:41 AM CDT 7:45 PM CDT
Civil Twilight 7:15 AM CDT 8:11 PM CDT
Nautical Twilight 6:44 AM CDT 8:42 PM CDT
Astronomical Twilight 6:12 AM CDT 9:14 PM CDT
Moon 10:02 PM CDT (3/18) 8:33 AM CDT (3/18)
Length of Visible Light 12h 56m
Length of Day
12h 03m
Waning Gibbous, 96% of the Moon is Illuminated
Mar 18
Waning Gibbous
Mar 23
Last Quarter
Mar 30
New
Apr 7
First Quarter
Apr 15
Full

Hourly Weather History & Observations

Time (CDT) Temp. Windchill Dew Point Humidity Pressure Visibility Wind Dir Wind Speed Gust Speed Precip Events Conditions
12:53 AM 48.0 °F - 28.0 °F 46% 29.29 in 10.0 mi South 27.6 mph 41.4 mph N/A   Clear
1:53 AM 46.9 °F - 28.0 °F 48% 29.26 in 10.0 mi SSE 25.3 mph 32.2 mph N/A   Clear
2:53 AM 46.0 °F 38.3 °F 28.0 °F 50% 29.25 in 10.0 mi South 20.7 mph 33.4 mph N/A   Partly Cloudy
3:53 AM 42.1 °F 37.1 °F 28.0 °F 58% 29.27 in 10.0 mi South 8.1 mph - N/A   Clear
4:53 AM 37.9 °F 30.9 °F 27.0 °F 65% 29.26 in 10.0 mi SSE 10.4 mph - N/A   Clear
5:53 AM 37.9 °F 31.5 °F 28.0 °F 68% 29.26 in 10.0 mi SSE 9.2 mph - N/A   Clear
6:53 AM 37.0 °F 31.0 °F 28.0 °F 70% 29.29 in 10.0 mi SSE 8.1 mph - N/A   Clear
7:53 AM 36.0 °F 33.3 °F 28.0 °F 73% 29.31 in 10.0 mi Variable 3.5 mph - N/A   Clear
8:53 AM 37.9 °F - 30.0 °F 73% 29.34 in 10.0 mi Calm Calm - N/A   Clear
9:53 AM 45.0 °F 36.6 °F 32.0 °F 60% 29.38 in 10.0 mi NW 21.9 mph 35.7 mph N/A   Clear
10:53 AM 45.0 °F 35.8 °F 32.0 °F 60% 29.41 in 10.0 mi NW 26.5 mph 36.8 mph N/A   Mostly Cloudy
11:53 AM 51.1 °F - 33.1 °F 50% 29.41 in 10.0 mi NNW 29.9 mph 36.8 mph N/A   Clear
12:53 PM 52.0 °F - 33.1 °F 49% 29.44 in 10.0 mi NNW 26.5 mph 32.2 mph N/A   Clear
1:53 PM 52.0 °F - 32.0 °F 47% 29.47 in 10.0 mi NNW 23.0 mph 29.9 mph N/A   Clear
2:53 PM 51.1 °F - 32.0 °F 48% 29.51 in 10.0 mi NNW 19.6 mph 28.8 mph N/A   Scattered Clouds
3:53 PM 46.0 °F 37.6 °F 30.0 °F 54% 29.56 in 10.0 mi NNW 24.2 mph 31.1 mph N/A   Overcast
4:53 PM 42.1 °F 32.8 °F 28.9 °F 60% 29.63 in 10.0 mi NW 21.9 mph 29.9 mph N/A   Overcast
5:53 PM 39.9 °F 29.7 °F 28.9 °F 65% 29.68 in 10.0 mi NW 23.0 mph - N/A   Overcast
6:53 PM 36.0 °F 23.7 °F 30.0 °F 79% 29.74 in 9.0 mi NW 26.5 mph 35.7 mph 0.00 in   Overcast
7:53 PM 34.0 °F 20.5 °F 28.9 °F 82% 29.79 in 8.0 mi NNW 28.8 mph 36.8 mph 0.00 in Snow Light Snow
8:30 PM 33.1 °F 19.6 °F 30.0 °F 89% 29.79 in 6.0 mi NNW 27.6 mph 38.0 mph 0.00 in Snow Light Snow
8:41 PM 33.1 °F 21.2 °F 30.0 °F 89% 29.80 in 2.5 mi NNW 20.7 mph - 0.00 in Snow Light Snow
8:53 PM 33.1 °F 19.3 °F 30.0 °F 89% 29.85 in 2.5 mi NNW 28.8 mph 39.1 mph 0.00 in Snow Light Snow
9:00 PM 34.0 °F 20.3 °F 30.0 °F 85% 29.82 in 8.0 mi NNW 29.9 mph 39.1 mph 0.00 in Snow Light Snow
9:22 PM 34.0 °F 21.0 °F 30.0 °F 85% 29.83 in 4.0 mi NNW 26.5 mph 39.1 mph 0.00 in Snow Light Snow
9:35 PM 33.1 °F 21.2 °F 30.9 °F 92% 29.84 in 5.0 mi NNW 20.7 mph 31.1 mph 0.00 in Snow Light Snow
9:44 PM 33.1 °F 22.2 °F 30.9 °F 92% 29.85 in 7.0 mi NW 17.3 mph - 0.00 in Snow Light Snow
9:53 PM 33.1 °F 21.9 °F 32.0 °F 96% 29.89 in 5.0 mi NW 18.4 mph - 0.00 in Snow Light Snow
10:00 PM 33.1 °F 23.0 °F 32.0 °F 96% 29.86 in 6.0 mi NW 15.0 mph - 0.00 in Snow Light Snow
10:37 PM 34.0 °F 22.1 °F 32.0 °F 92% 29.88 in 10.0 mi NNW 21.9 mph 28.8 mph 0.00 in   Overcast
10:53 PM 34.0 °F 21.3 °F 32.0 °F 92% 29.92 in 8.0 mi NNW 25.3 mph 32.2 mph 0.00 in Snow Light Snow
11:21 PM 35.1 °F 21.8 °F 32.0 °F 89% 29.91 in 10.0 mi NNW 29.9 mph 36.8 mph 0.00 in   Overcast
11:53 PM 35.1 °F 23.5 °F 30.9 °F 85% 29.95 in 10.0 mi NNW 21.9 mph 28.8 mph 0.00 in   Overcast